This is the latest recevied weather packets stored in our database for station/object K0PFX-8. If no packets are shown the sender has not sent any weather packets the latest 1 day(s).
| Time | Temp. | Humidity | Pressure | Rain* | Wind** | Luminosity | Snow |
|---|---|---|---|---|---|---|---|
| 1778064568 | 8.33° C | 100% | 1014.4 hPa | 0.25 mm | 0 m/s | - | - |
| 1778063667 | 8.33° C | 100% | 1013.9 hPa | 0.76 mm | 0 m/s | - | - |
| 1778062767 | 8.33° C | 100% | 1014.1 hPa | 0.76 mm | 0 m/s | - | - |
| 1778060968 | 8.33° C | 100% | 1014.2 hPa | 0.76 mm | 0 m/s | - | - |
| 1778058267 | 8.33° C | 100% | 1014.5 hPa | 0 mm | 0 m/s | - | - |
| 1778057368 | 8.33° C | 100% | 1014.3 hPa | 0 mm | 0 m/s | - | - |
| 1778056467 | 8.33° C | 100% | 1014.2 hPa | 0.25 mm | 0 m/s | - | - |
| 1778055569 | 8.33° C | 100% | 1014 hPa | 0.25 mm | 0 m/s | - | - |
| 1778054668 | 8.33° C | 100% | 1014.1 hPa | 0.25 mm | 0 m/s | - | - |
| 1778052868 | 8.33° C | 100% | 1013.7 hPa | 0.76 mm | 0 m/s | - | - |
| 1778051068 | 8.33° C | 100% | 1014.1 hPa | 0.76 mm | 0 m/s | - | - |
| 1778050170 | 8.33° C | 100% | 1014.2 hPa | 0.76 mm | 0 m/s | - | - |
| 1778048370 | 8.33° C | 100% | 1013.6 hPa | 0.51 mm | 0 m/s | - | - |
| 1778047469 | 8.33° C | 100% | 1013.2 hPa | 0.51 mm | 0 m/s | - | - |
| 1778046570 | 8.89° C | 100% | 1013.3 hPa | 0.51 mm | 0 m/s | - | - |
| 1778044769 | 8.33° C | 100% | 1013.5 hPa | 0.25 mm | 0 m/s | - | - |
| 1778043868 | 8.89° C | 100% | 1013.2 hPa | 0.25 mm | 0 m/s | - | - |
| 1778042969 | 8.89° C | 100% | 1013.2 hPa | 0.25 mm | 0 m/s | - | - |
| 1778042068 | 8.33° C | 100% | 1013 hPa | 0 mm | 0 m/s | - | - |
| 1778041169 | 8.33° C | 100% | 1013.1 hPa | 0 mm | 0 m/s | - | - |
| 1778040268 | 8.33° C | 100% | 1013.1 hPa | 0 mm | 0 m/s | - | - |
| 1778038468 | 8.33° C | 100% | 1013.3 hPa | 1.02 mm | 0.45 m/s, 240° | - | - |
| 1778037570 | 8.33° C | 100% | 1012.6 hPa | 1.02 mm | 0 m/s | - | - |
| 1778035770 | 8.33° C | 100% | 1012.1 hPa | 1.02 mm | 0 m/s | - | - |
* Rain latest hour (hover to see other rain measurements)
** Current wind speed in m/s (hover to see current wind gust speed)